Résultat route 10km - 2006

Sélectionner un nom à chercher:

Class.CoureurTpsCatClass. Cat
haut de page1 PAILLAT PHILIPPE (#789) 00:30:52 SE 1
haut de page2 RIOBE GUILLAUME (#799) 00:31:17 ES 1
haut de page3 BRECHETEAU JEAN JOSEPH (#502) 00:31:32 V1 1
haut de page4 ROUX CHRISTIAN (#761) 00:32:04 SE 2
haut de page5 KSOUDA NOAMEN (#503) 00:32:09 SE 3
haut de page6 KREJCI KAREL (#504) 00:32:15 SE 4
haut de page7 ANDORIN SEBASTIEN (#512) 00:32:37 SE 5
haut de page8 LAUNAY STEPHANE (#672) 00:33:09 SE 6
haut de page9 PLANTARD LAURENT (#813) 00:33:20 SE 7
haut de page10 JAN NOEL (#662) 00:33:32 SE 8
haut de page11 RAZOKI BELKACEM (#743) 00:34:05 SE 9
haut de page12 SEVERE NICOLAS (#767) 00:34:19 ES 2
haut de page13 BOUSSAIDI ABDEL (#543) 00:34:32 SE 10
haut de page14 COUSIN PASCAL (#583) 00:34:36 V1 2
haut de page15 MOUSSEAU CEDRIC (#822) 00:34:40 SE 11
haut de page16 HERAULT WILLY (#656) 00:34:43 SE 12
haut de page17 LEBLONG DIMITRI (#676) 00:34:43 SE 13
haut de page18 TOURNEUX VINCENT (#774) 00:34:46 SE 14
haut de page19 BOULAY DAVID (#537) 00:34:55 SE 15
haut de page20 BELLEROPHON HERVE (#520) 00:34:57 SE 16
haut de page21 GISLIER LAURENT (#638) 00:34:58 SE 17
haut de page22 GABARD CHRISTOPHE (#616) 00:35:03 V1 3
haut de page23 GUILLOTIN MICKAEL (#651) 00:35:16 SE 18
haut de page24 AMOUNY CYRIL (#511) 00:35:28 SE 19
haut de page25 TEMPLET ANTHONY (#769) 00:35:35 SE 20
haut de page26 MINGUET JACQUES (#793) 00:35:40 V1 4
haut de page27 FREMY OLIVIER (#614) 00:35:42 SE 21
haut de page28 ROULLIER JACQUES (#759) 00:35:43 SE 22
haut de page29 CLAIN OLIVIER (#574) 00:35:45 SE 23
haut de page30 DESNOES CHRISTOPHE (#596) 00:35:59 SE 24
haut de page31 MESNARD REGIS (#706) 00:36:00 SE 25
haut de page32 OURY RAPHAEL (#826) 00:36:08 SE 26
haut de page33 COPAIN STEPHANE (#840) 00:36:13 SE 27
haut de page34 BRAULT THIERRY (#546) 00:36:14 V1 5
haut de page35 GUERIN DIDIER (#804) 00:36:19 V1 6
haut de page36 NOUTEAU SIMON (#715) 00:36:33 CA 1
haut de page37 GOISNARD PASCAL (#639) 00:36:46 V1 7
haut de page38 COUMBA FELICIEN (#581) 00:36:50 V1 8
haut de page39 FRITEAU MICHEL (#615) 00:36:50 V3 1
haut de page40 HULIN JOEL (#659) 00:36:51 V1 9
haut de page41 SERISIER JEAN MICHEL (#765) 00:36:51 V1 10
haut de page42 BEASSE TONY (#517) 00:37:19 SE 28
haut de page43 MAUGET STEPHANE (#701) 00:37:24 SE 29
haut de page44 CONGNARD FRANCK (#577) 00:37:25 V1 11
haut de page45 GUILLOUCHE JOEL (#652) 00:37:26 V1 12
haut de page46 GUILLON YANNICK (#649) 00:37:30 SE 30
haut de page47 BOBARD XAVIER (#531) 00:37:32 V1 13
haut de page48 GUIOCHET ARNAUD (#653) 00:37:37 SE 31
haut de page49 DUPONT JOEL (#604) 00:37:41 V1 14
haut de page50 ALLARD PASCAL (#509) 00:37:47 SE 32
haut de page51 VAUTIER ERIC (#782) 00:37:50 SE 33
haut de page52 ROCHET OLIVIER (#755) 00:37:51 SE 34
haut de page53 DUPUIS PATRICK (#605) 00:37:57 V1 15
haut de page54 ROUSSEAU GUILLAUME (#760) 00:37:59 SE 35
haut de page55 CORABOEUF FRANCOIS (#578) 00:38:03 V1 16
haut de page56 GABARD GAETAN (#617) 00:38:09 V1 17
haut de page57 MARIETTE CHRISTOPHE (#698) 00:38:09 SE 36
haut de page58 POINTEAU RAYMOND (#736) 00:38:12 V2 1
haut de page59 PILARD PHILIPPE (#821) 00:38:16 V1 18
haut de page60 GABORY VINCENT (#619) 00:38:21 SE 37
haut de page61 ADAMS ROBERT (#506) 00:38:25 V2 2
haut de page62 HERAULT FREDERIC (#808) 00:38:34 SE 38
haut de page63 ROUAULT JIMMY (#816) 00:38:34 SE 39
haut de page64 BAIN JOEL (#838) 00:38:35 SE 40
haut de page65 CLEMENCEAU FRANCOIS (#575) 00:38:37 V1 19
haut de page66 THUAL ALAIN (#771) 00:38:53 V2 3
haut de page67 LECRU CHRISTIAN (#684) 00:38:54 V1 20
haut de page68 LEBLONG CYRIL (#675) 00:38:57 CA 2
haut de page69 MISSIOUX VINCENT (#707) 00:38:57 SE 41
haut de page70 LOCHARD FABIEN (#798) 00:39:00 V1 21
haut de page71 PITON FRANCK (#733) 00:39:01 V1 22
haut de page72 BRUNEAU ANTOINE (#557) 00:39:08 SE 42
haut de page73 GRELIER JACQUELINE (#505) 00:39:10 V1 1
haut de page74 FOURNIER GAEL (#612) 00:39:15 JU 1
haut de page75 HUET FRANCK (#658) 00:39:24 SE 43
haut de page76 LERAY THIERRY (#691) 00:39:25 SE 44
haut de page77 GUERIN CHRISTOPHE (#805) 00:39:32 SE 45
haut de page78 GUEMARD BRUNO (#644) 00:39:33 V1 23
haut de page79 DESLANDES JEAN LOUIS (#595) 00:39:37 V1 24
haut de page80 BRIERE SYLVAIN (#552) 00:39:39 SE 46
haut de page81 BUSSY MICHEL (#560) 00:39:48 V1 25
haut de page82 ROUX DIDIER (#791) 00:39:49 V1 26
haut de page83 LECLERC BRUNO (#680) 00:39:49 V1 27
haut de page84 DIGARD PASCAL (#598) 00:39:50 V1 28
haut de page85 FILNAMBU JACQUES (#610) 00:40:00 V2 4
haut de page86 MAUSSION JEAN-LUC (#702) 00:40:02 V1 29
haut de page87 AMOSSE JEAN PAUL (#510) 00:40:07 V1 30
haut de page88 LAMBERT JOCELYN (#670) 00:40:15 V1 31
haut de page89 DELESSARD JEROME (#591) 00:40:16 SE 47
haut de page90 TARIAN STANISLAS (#833) 00:40:19 SE 48
haut de page91 VERGNAUX MATHIEU (#832) 00:40:22 ES 3
haut de page92 TUFFREAU DIDIER (#779) 00:40:24 V1 32
haut de page93 BRU GEORGES (#556) 00:40:30 V2 5
haut de page94 PROD HOMME ANTHONY (#739) 00:40:33 SE 49
haut de page95 SOURDRILLE MIKAEL (#768) 00:40:36 SE 50
haut de page96 RENARD YVES (#746) 00:40:42 V1 33
haut de page97 CHEDANE JOEL (#569) 00:40:50 V2 6
haut de page98 HERAULT FRANCK (#818) 00:40:51 SE 51
haut de page99 RABEAU THIERRY (#741) 00:40:52 V1 34
haut de page100 DABIN CHRISTOPHE (#585) 00:40:57 SE 52
haut de page101 DUMOULIN JULIEN (#602) 00:41:07 CA 3
haut de page102 CHARTRAIN GEORGES (#567) 00:41:08 V3 2
haut de page103 ROULLIER ANTOINE (#757) 00:41:09 SE 53
haut de page104 BOURGEAIS PHILIPPE (#540) 00:41:09 SE 54
haut de page105 GASCOIN JEAN LOUIS (#622) 00:41:10 V2 7
haut de page106 ROUXEL ERWAN (#762) 00:41:27 SE 55
haut de page107 CHARDON TONY (#566) 00:41:29 SE 56
haut de page108 FOUCHET FRANCOIS (#611) 00:41:35 V2 8
haut de page109 LEBRUMENT ERIC (#678) 00:41:44 V1 35
haut de page110 CHOTARD YANNICK (#573) 00:41:46 V1 36
haut de page111 PELTIER Laurent (#788) 00:41:51 SE 57
haut de page112 LEPRETRE JACQUES (#690) 00:41:52 V1 37
haut de page113 THIEBAULT FRANCOIS (#770) 00:41:54 SE 58
haut de page114 BERTHELOT PATRICE (#526) 00:41:58 SE 59
haut de page115 BEMBEKOFF ERIC (#522) 00:42:04 V1 38
haut de page116 BELLIER MICHEL (#521) 00:42:05 V2 9
haut de page117 HUMEAU XAVIER (#661) 00:42:07 V1 39
haut de page118 SAGADEVIN KAVIDA (#763) 00:42:09 CA 1
haut de page119 QUEMENER JEAN-YVES (#740) 00:42:09 SE 60
haut de page120 BARBOT DOMINIQUE (#516) 00:42:11 V1 40
haut de page121 MONNIER FREDERIC (#708) 00:42:13 SE 61
haut de page122 CALVO ERIC (#563) 00:42:14 SE 62
haut de page123 PASQUIER GWENAEL (#723) 00:42:17 SE 63
haut de page124 GELINEAU ANNIE (#627) 00:42:23 V2 1
haut de page125 GENDRY MICHEL (#631) 00:42:25 V2 10
haut de page126 MORIN NOEL (#712) 00:42:27 SE 64
haut de page127 ROBERT DENIS (#753) 00:42:32 SE 65
haut de page128 PRIOUR FRANCK (#738) 00:42:35 SE 66
haut de page129 COMTE BENOIT (#576) 00:42:37 SE 67
haut de page130 TROTTIER OLIVIER (#778) 00:42:37 SE 68
haut de page131 FILNAMBU ARNAUD (#609) 00:42:41 SE 69
haut de page132 ALLAIN THIERRY (#508) 00:42:42 V1 41
haut de page133 GROLLEAU XAVIER (#642) 00:42:43 V1 42
haut de page134 GAUTHIER REGIS (#625) 00:42:46 SE 70
haut de page135 LENOIR PATRICE (#689) 00:42:53 V1 43
haut de page136 MENARD YOHANN (#704) 00:42:57 SE 71
haut de page137 MARTIN ERIC (#795) 00:42:59 SE 72
haut de page138 DUPONT BERTRAND (#603) 00:43:01 V1 44
haut de page139 PLASSAIS OLIVIER (#836) 00:43:02 SE 73
haut de page140 GELINEAU JEAN CLAUDE (#629) 00:43:02 V2 11
haut de page141 MOREAU THIERRY (#814) 00:43:07 V1 45
haut de page142 BOUSSION EMMANUEL (#544) 00:43:08 SE 74
haut de page143 DESAUNAY AGNES (#593) 00:43:09 V1 2
haut de page144 GUILLOT DOMINIQUE (#650) 00:43:11 V2 12
haut de page145 ANDORIN CYRILLE (#830) 00:43:11 SE 75
haut de page146 CHABOT GAEL (#794) 00:43:12 SE 76
haut de page147 MAINGRET FREDERIC (#810) 00:43:15 SE 77
haut de page148 MENANTEAU ALAIN (#806) 00:43:21 SE 78
haut de page149 LEMERCIER GIANNI (#688) 00:43:21 SE 79
haut de page150 RIOT JEAN PIERRE (#749) 00:43:22 V1 46
haut de page151 HUMEAU BERNARD (#824) 00:43:23 V2 13
haut de page152 MOTRIEUX STEPHANE (#714) 00:43:25 SE 80
haut de page153 CORNU GERARD (#579) 00:43:28 V2 14
haut de page154 TAUNAIS ERIC (#829) 00:43:33 V1 47
haut de page155 ROBREAU CLAUDE (#809) 00:43:36 V1 48
haut de page156 ROBIN PHILIPPE (#754) 00:43:40 SE 81
haut de page157 PINEAU JEAN LUC (#730) 00:43:41 V1 49
haut de page158 COUE JOSE (#580) 00:43:41 V1 50
haut de page159 GELINEAU PASCAL (#630) 00:43:42 V1 51
haut de page160 CHARBONNIER JOSEPH (#565) 00:43:47 V2 15
haut de page161 RAIMBAULT MIGUEL (#742) 00:43:50 SE 82
haut de page162 RENY JACQUES (#747) 00:43:50 V1 52
haut de page163 JOURDAIN JACQUES (#801) 00:43:52 V2 16
haut de page164 GIGARD NATHALIE (#632) 00:43:53 SE 1
haut de page165 LECLERC SERGE (#682) 00:43:53 V1 53
haut de page166 GELINEAU BERTRAND (#628) 00:43:53 V1 54
haut de page167 MARCHAISSE STEPHANE (#828) 00:43:59 V1 55
haut de page168 LE NOEN MICHEL (#823) 00:43:59 V1 56
haut de page169 BRISTOL MICHEL (#554) 00:44:00 V1 57
haut de page170 PASQIUER BRUNO (#721) 00:44:03 SE 83
haut de page171 TROTTIER STEPHANE (#803) 00:44:05 SE 84
haut de page172 TIREBOIS JULIEN (#772) 00:44:18 JU 2
haut de page173 AUPRE MICHEL (#514) 00:44:19 V2 17
haut de page174 GALISSON ERIC (#620) 00:44:20 SE 85
haut de page175 DELAVEAU BERNARD (#831) 00:44:25 V1 58
haut de page176 HUET DENIS (#657) 00:44:35 SE 86
haut de page177 MOREL MARTIAL (#710) 00:44:40 SE 87
haut de page178 BOBARD ANITA (#530) 00:44:43 V1 3
haut de page179 CHEVALIER PATRICK (#572) 00:44:46 SE 88
haut de page180 BERTHAUD GEOFFROY (#524) 00:44:47 SE 89
haut de page181 MOREAU XAVIER (#709) 00:44:49 V2 18
haut de page182 VINCENT CYRIL (#811) 00:44:49 SE 90
haut de page183 HUMEAU JACKY (#660) 00:44:50 SE 91
haut de page184 LE BARS GERARD (#674) 00:44:56 V3 3
haut de page185 ROUAULT JOSEPH (#815) 00:45:00 V1 59
haut de page186 PASQUIER MAURICE (#724) 00:45:02 V3 4
haut de page187 ROULLIER HENRI (#758) 00:45:06 V3 5
haut de page188 SCHWARZ FREDDY (#764) 00:45:08 V1 60
haut de page189 BRISEBOURG GUY (#553) 00:45:09 V2 19
haut de page190 COCHEREAU FABIEN (#834) 00:45:10 SE 92
haut de page191 DAVY ALAIN (#802) 00:45:14 V1 61
haut de page192 MARTIN STEPHANE (#700) 00:45:16 SE 93
haut de page193 VANDENBOGAERDE PASCAL (#781) 00:45:18 V1 62
haut de page194 TORTELLIER YANNICK (#773) 00:45:30 V1 63
haut de page195 GIRARDEAU JEAN PAUL (#637) 00:45:33 V2 20
haut de page196 CHOBLET FABRICE (#792) 00:45:34 SE 94
haut de page197 TALOUARN LOUIS (#817) 00:45:45 V1 64
haut de page198 PAULIN ALEX (#726) 00:45:52 V2 21
haut de page199 POTIN RAPHAEL (#737) 00:45:53 ES 4
haut de page200 VEAU FREDERIC (#783) 00:45:56 V1 65
haut de page201 CHESNEAU FABRICE (#570) 00:46:05 SE 95
haut de page202 ALBERT JEAN LOUIS (#507) 00:46:06 V1 66
haut de page203 GAUD JEAN-PIERRE (#623) 00:46:09 V2 22
haut de page204 PERRAULT JEAN MARC (#727) 00:46:21 V1 67
haut de page205 LORET JEAN PAUL (#694) 00:46:24 V2 23
haut de page206 RIGAULT XAVIER (#835) 00:46:36 SE 96
haut de page207 DESERT STEPHANE (#594) 00:46:37 V1 68
haut de page208 DERSOIR JEAN (#592) 00:46:41 V1 69
haut de page209 JARRY STEPHANE (#663) 00:46:41 ES 5
haut de page210 HAYS CLAUDE (#655) 00:46:49 V3 6
haut de page211 BOURGEAIS MARIE (#539) 00:46:55 SE 2
haut de page212 GUICHARD ANNETTE (#647) 00:46:55 V2 2
haut de page213 FAVREAU MICHEL (#608) 00:46:57 V2 24
haut de page214 CLEMENT DANIEL (#837) 00:47:00 SE 97
haut de page215 LECLERC THIERRY (#683) 00:47:22 SE 98
haut de page216 BRETONNIER LAURENT (#549) 00:47:32 SE 99
haut de page217 DUMOULIN EMMANUELLE (#601) 00:47:32 ES 1
haut de page218 MARTIN NICOLAS (#699) 00:47:36 V1 70
haut de page219 BREBION GILLES (#547) 00:47:39 SE 100
haut de page220 BREBION KATIA (#548) 00:47:39 SE 3
haut de page221 RONGERE GUILLAUME (#756) 00:47:44 SE 101
haut de page222 COUTY FRANCK (#584) 00:47:57 V1 71
haut de page223 HASCOET VINCENT (#654) 00:47:59 SE 102
haut de page224 BRUNEAU JEAN CLAUDE (#558) 00:48:06 V2 25
haut de page225 BOURGAUD THIERRY (#538) 00:48:07 V1 72
haut de page226 MACAULT ROMARIC (#697) 00:48:13 CA 4
haut de page227 MACAULT PHILIPPE (#696) 00:48:13 V1 73
haut de page228 BRUNEAU MARLENE (#559) 00:48:16 V2 3
haut de page229 JULIEN JEAN MICHEL (#666) 00:48:17 V1 74
haut de page230 MESANGE SANDRINE (#705) 00:48:22 SE 4
haut de page231 GIRARDEAU FABIEN (#636) 00:48:25 SE 103
haut de page232 FERRON DIDIER (#825) 00:48:36 V1 75
haut de page233 AUDUSSEAU FRANCK (#513) 00:48:37 V1 76
haut de page234 ONDET JEAN PAUL (#716) 00:48:39 V1 77
haut de page235 BESNIER PIERRE (#528) 00:48:40 V2 26
haut de page236 VOLEAU FREDERIC (#787) 00:48:45 SE 104
haut de page237 RAT JEAN JACQUES (#744) 00:48:46 V1 78
haut de page238 BERTRAND DAVID (#827) 00:48:49 SE 105
haut de page239 BODY PHILIPPE (#533) 00:48:57 V1 79
haut de page240 JOLLY ODILE (#665) 00:49:01 SE 5
haut de page241 RIPAUD YVON (#750) 00:49:07 V2 27
haut de page242 CHEVALIER JEAN CLAUDE (#571) 00:49:12 V1 80
haut de page243 BRIAND NICOLAS (#550) 00:49:22 SE 106
haut de page244 GILLOT FLORENCE (#635) 00:49:28 V1 4
haut de page245 PUCELLE JACKY (#790) 00:49:29 V1 81
haut de page246 TROMEUR ANITA (#776) 00:49:42 V1 5
haut de page247 BARRAU ANTONIN (#807) 00:49:42 ES 6
haut de page248 BARBEAU BRIGITTE (#515) 00:50:06 V1 6
haut de page249 OUVRARD DIDIER (#718) 00:50:46 SE 107
haut de page250 GARCIAU LAURENT (#621) 00:50:47 SE 108
haut de page251 BRANCHEREAU JEAN PAUL (#545) 00:51:07 V2 28
haut de page252 DREAN JEAN-CLAUDE (#599) 00:51:29 V3 7
haut de page253 GAUDIN MICHELLE (#624) 00:51:31 V1 7
haut de page254 DREAN MARINE (#600) 00:51:33 CA 2
haut de page255 LEFORT GUILLAUME (#796) 00:51:40 SE 109
haut de page256 DIABLE GUY (#597) 00:51:40 SE 110
haut de page257 DAVIAUD VERONIQUE (#588) 00:51:41 SE 6
haut de page258 PASQUIER NATHALIE (#725) 00:52:19 SE 7
haut de page259 BERTHELOT OLLIVIER (#525) 00:52:40 SE 111
haut de page260 LAINE CHRISTOPHE (#669) 00:52:53 SE 112
haut de page261 DAVID HENRI LUC (#589) 00:52:53 V2 29
haut de page262 CHERBONNIER GEORGES (#819) 00:53:27 V1 82
haut de page263 DELESTRE FABIEN (#797) 00:53:29 ES 7
haut de page264 MOTRIEUX LAETITIA (#713) 00:53:36 SE 8
haut de page265 GAUTIER ERIC (#626) 00:53:36 SE 113
haut de page266 BEAUCHENE FREDERIC (#519) 00:53:47 CA 5
haut de page267 BOITEAU BRIGITTE (#536) 00:54:15 V1 8
haut de page268 MORIN CECILE (#711) 00:54:58 SE 9
haut de page269 BROCHARD SEBASTIEN (#555) 00:55:08 SE 114
haut de page270 GUCCIARDO SALVATOR (#643) 00:55:15 V2 30
haut de page271 DAVIAUD JEAN MARC (#587) 00:55:28 V1 83
haut de page272 PERRAULT VERONIQUE (#728) 00:55:38 V1 9
haut de page273 LEROY THIERRY (#693) 00:55:38 SE 115
haut de page274 DURAND JEAN MARC (#606) 00:55:41 V2 31
haut de page275 JEANNETEAU ERIC (#664) 00:55:56 SE 116
haut de page276 GABARD SOPHIE (#618) 00:56:08 SE 10
haut de page277 BOURRIGAULT MARC (#542) 00:56:10 V1 84
haut de page278 LEMARCHAND LUCKY (#685) 00:56:12 SE 117
haut de page279 RAUX JEAN-MARIE (#745) 00:56:41 V2 32
haut de page280 LAMBERT ARMAND (#800) 00:57:15 V4 1
haut de page281 LEROY JEAN NOEL (#692) 00:57:24 V1 85
haut de page282 BODIN LAURENT (#532) 00:58:08 SE 118
haut de page283 PILARD MARIE ANGE (#820) 00:58:08 SE 11
haut de page284 GUERY SYLVIE (#646) 00:59:34 V1 10
haut de page285 TRIBALLEAU CHANTAL (#775) 00:59:48 V2 4
haut de page286 BEAUCHENE DAMIEN (#518) 01:00:37 JU 3
haut de page287 MACAULT CAMILLE (#695) 01:00:52 JU 1
haut de page288 VIGNAUD HELENE (#785) 01:00:58 JU 2

  • aucoursdeshalles.gif
  • coiff_fm.jpg
  • decat.jpg
  • HalleLycee.jpg
  • HalleVisit.jpg
  • PASSELANDE.jpg
  • Reva.jpg
  • super-u.gif
  • trirunningpassion.gif
  • _2.gif
  • _3.gif
  • _9.gif
  • _14.gif
  • _23.gif
  • _24.gif
  • _32.gif
  • _94.gif
  • _96.gif
  • _99.gif
  • HM.jpg
  • logopomona.jpg
  • _88.gif
  • _92.gif
  • _94.gif

Etat des inscriptions